Tracking 19854 objects as of 23-Sep-2019
HD Live streaming from Space Station
objects crossing your sky now

STARLINK OBJ AL

Track STARLINK OBJ AL now!
10-day predictions
STARLINK OBJ AL is classified as:


NORAD ID: 44269
Int'l Code: 2019-029AL
Perigee: 555.6 km
Apogee: 558.7 km
Inclination: 53.0 °
Period: 95.7 minutes
Semi major axis: 6928 km
RCS: Unknown
Launch date: May 24, 2019
Source: United States (US)
Launch site: AIR FORCE EASTERN TEST RANGE (AFETR)
aabbcc
Your satellite tracking list
Your tracking list is empty




NASA's NSSDC Master Catalog

Two Line Element Set (TLE):
1 44269U 19029AL  19264.84125572  .00000934  00000-0  83487-4 0  9992
2 44269  53.0005 349.7020 0002204  87.6738 272.4502 15.05480060 18372
Source of the keplerian elements: AFSPC